GW6957 Weather Reports


Display with metric or nautical units.
time (UTC)temp
F
wind
direction
speed
MPH
gust
MPH
rain 1hr
in
rain 24hr
in
rain mn
in
humidity
%
barometer
mb
20260831200232 92 183 3.0 3.0 0.00 0.00 0.00 56 1019.3
20260831195734 92 5 3.0 4.0 0.00 0.00 0.00 56 1019.6
20260831195232 92 137 2.0 3.0 0.00 0.00 0.00 56 1019.6
20260831194733 92 181 4.0 6.0 0.00 0.00 0.00 58 1019.6
20260831194233 92 99 3.0 3.0 0.00 0.00 0.00 57 1019.6
20260831193733 91 170 3.0 3.0 0.00 0.00 0.00 60 1019.6
20260831193232 91 68 3.0 6.0 0.00 0.00 0.00 60 1019.6
20260831192733 91 106 5.0 7.0 0.00 0.00 0.00 60 1019.6
20260831192232 91 81 3.0 4.0 0.00 0.00 0.00 61 1019.6
20260831191733 92 158 3.0 4.0 0.00 0.00 0.00 61 1019.6
20260831191232 92 118 2.0 3.0 0.00 0.00 0.00 60 1020.0
20260831190733 92 93 5.0 5.0 0.00 0.00 0.00 58 1020.0
20260831190233 92 125 4.0 6.0 0.00 0.00 0.00 60 1020.0
20260831185732 92 97 3.0 3.0 0.00 0.00 0.00 58 1020.0
20260831185232 91 62 3.0 5.0 0.00 0.00 0.00 60 1020.0
20260831184734 90 149 1.0 2.0 0.00 0.00 0.00 61 1020.0
20260831184233 93 166 3.0 4.0 0.00 0.00 0.00 56 1020.0
20260831183733 93 161 5.0 7.0 0.00 0.00 0.00 57 1020.0
20260831183234 93 119 4.0 5.0 0.00 0.00 0.00 57 1020.0
20260831182733 93 112 3.0 4.0 0.00 0.00 0.00 56 1020.0
20260831182233 92 82 2.0 3.0 0.00 0.00 0.00 57 1020.0
20260831181732 92 108 2.0 4.0 0.00 0.00 0.00 60 1020.0
20260831181232 92 109 2.0 3.0 0.00 0.00 0.00 60 1020.0
20260831180735 92 96 3.0 4.0 0.00 0.00 0.00 60 1020.0
20260831180233 92 160 2.0 3.0 0.00 0.00 0.00 62 1020.0
20260831175732 92 78 3.0 3.0 0.00 0.00 0.00 59 1020.0
20260831175233 92 94 1.0 1.0 0.00 0.00 0.00 60 1020.0
20260831174733 93 79 0.0 1.0 0.00 0.00 0.00 58 1020.0
20260831174235 92 227 2.0 2.0 0.00 0.00 0.00 59 1020.0
20260831173733 91 85 1.0 1.0 0.00 0.00 0.00 62 1020.0
20260831173233 89 66 2.0 3.0 0.00 0.00 0.00 62 1020.0
20260831172733 90 142 3.0 3.0 0.00 0.00 0.00 62 1020.0
20260831172233 91 103 7.0 10.0 0.00 0.00 0.00 60 1020.3
20260831171733 91 156 3.0 4.0 0.00 0.00 0.00 60 1020.3
20260831171232 92 154 1.0 1.0 0.00 0.00 0.00 61 1020.3
20260831170732 91 81 1.0 1.0 0.00 0.00 0.00 66 1020.3
20260831170233 90 71 2.0 2.0 0.00 0.00 0.00 63 1020.3
20260831165733 90 90 1.0 1.0 0.00 0.00 0.00 66 1020.3
20260831165233 90 233 3.0 3.0 0.00 0.00 0.00 65 1020.3
20260831164734 89 165 5.0 6.0 0.00 0.00 0.00 67 1020.3
20260831164232 89 91 3.0 4.0 0.00 0.00 0.00 65 1020.3
20260831163732 88 114 1.0 3.0 0.00 0.00 0.00 66 1020.3
20260831163232 88 78 2.0 3.0 0.00 0.00 0.00 67 1020.7
20260831162734 87 58 3.0 3.0 0.00 0.00 0.00 68 1020.7
20260831162232 87 119 1.0 2.0 0.00 0.00 0.00 68 1020.7
20260831161734 87 95 1.0 1.0 0.00 0.00 0.00 69 1020.7
20260831161233 87 106 3.0 3.0 0.00 0.00 0.00 68 1020.7
20260831160733 87 70 3.0 3.0 0.00 0.00 0.00 67 1020.7
20260831160233 88 118 1.0 1.0 0.00 0.00 0.00 67 1020.7
20260831155733 88 101 2.0 6.0 0.00 0.00 0.00 66 1020.7
20260831155233 88 173 3.0 4.0 0.00 0.00 0.00 67 1020.7
20260831154733 87 155 2.0 3.0 0.00 0.00 0.00 66 1020.7
20260831154233 86 94 2.0 2.0 0.00 0.00 0.00 69 1020.7
20260831153734 85 91 2.0 3.0 0.00 0.00 0.00 72 1020.7
20260831153233 84 91 2.0 2.0 0.00 0.00 0.00 73 1020.7
20260831152734 83 169 5.0 7.0 0.00 0.00 0.00 74 1020.7
20260831152233 83 78 3.0 3.0 0.00 0.00 0.00 76 1020.7
20260831151255 82 58 1.0 1.0 0.00 0.00 0.00 78 1020.7
20260831150733 82 64 2.0 2.0 0.00 0.00 0.00 76 1020.7
20260831150233 82 77 2.0 2.0 0.00 0.00 0.00 77 1020.7
20260831145733 81 72 2.0 3.0 0.00 0.00 0.00 79 1020.7
20260831145233 80 121 3.0 5.0 0.00 0.00 0.00 80 1020.7
20260831144732 79 158 2.0 2.0 0.00 0.00 0.00 81 1020.7
20260831144232 79 137 2.0 3.0 0.00 0.00 0.00 82 1020.7
20260831143733 78 128 2.0 2.0 0.00 0.00 0.00 84 1020.7
20260831143233 78 50 0.0 0.0 0.00 0.00 0.00 85 1020.7
20260831142733 77 164 1.0 2.0 0.00 0.00 0.00 86 1020.7
20260831142232 77 86 1.0 1.0 0.00 0.00 0.00 86 1020.7
20260831141733 76 105 1.0 1.0 0.00 0.00 0.00 87 1020.7
20260831141234 76 11 1.0 1.0 0.00 0.00 0.00 89 1020.3
20260831140734 76 29 0.0 0.0 0.00 0.00 0.00 89 1020.3
20260831140234 76 53 0.0 0.0 0.00 0.00 0.00 89 1020.3
20260831135733 75 133 2.0 2.0 0.00 0.00 0.00 91 1020.3
20260831135233 75 171 1.0 1.0 0.00 0.00 0.00 96 1020.3
20260831134732 75 360 0.0 0.0 0.00 0.00 0.00 99 1020.3
20260831134233 74 359 0.0 0.0 0.00 0.00 0.00 99 1020.3
20260831133732 74 51 1.0 2.0 0.00 0.00 0.00 95 1020.7
20260831133232 74 25 1.0 1.0 0.00 0.00 0.00 98 1020.7
20260831132732 74 49 0.0 1.0 0.00 0.00 0.00 99 1020.7
20260831132232 73 326 0.0 0.0 0.00 0.00 0.00 99 1020.3
20260831131732 73 7 0.0 0.0 0.00 0.00 0.00 99 1020.3
20260831131232 72 359 0.0 0.0 0.00 0.00 0.00 99 1020.3
20260831130734 72 360 0.0 0.0 0.00 0.00 0.00 99 1020.3
20260831130233 71 359 0.0 0.0 0.00 0.00 0.00 99 1020.3
20260831125732 70 359 0.0 0.0 0.00 0.00 0.00 99 1020.3
20260831125306 70 359 0.0 0.0 0.00 0.00 0.00 99 1020.3
20260831124733 69 360 1.0 1.0 0.00 0.00 0.00 99 1020.0
20260831124232 69 359 1.0 1.0 0.00 0.00 0.00 99 1020.0
20260831123801 69 359 0.0 0.0 0.00 0.00 0.00 99 1020.0
20260831123233 69 359 0.0 0.0 0.00 0.00 0.00 99 1020.0
20260831122732 69 359 0.0 0.0 0.00 0.00 0.00 99 1020.0
20260831122232 69 359 0.0 0.0 0.00 0.00 0.00 99 1020.0
20260831121732 68 359 0.0 0.0 0.00 0.00 0.00 99 1020.0
20260831121233 68 359 0.0 0.0 0.00 0.00 0.00 99 1020.0
20260831120732 68 359 0.0 0.0 0.00 0.00 0.00 99 1020.0
20260831120235 67 360 0.0 0.0 0.00 0.00 0.00 99 1020.0
20260831115733 67 359 0.0 0.0 0.00 0.00 0.00 99 1020.0
20260831115232 67 359 0.0 0.0 0.00 0.00 0.00 99 1020.0
20260831114732 67 359 0.0 0.0 0.00 0.00 0.00 99 1020.0
20260831114233 67 359 0.0 0.0 0.00 0.00 0.00 99 1020.0
20260831113733 67 359 0.0 0.0 0.00 0.00 0.00 99 1020.0
20260831113233 67 359 0.0 0.0 0.00 0.00 0.00 99 1020.0
20260831112732 67 359 0.0 0.0 0.00 0.00 0.00 99 1020.0
20260831112233 67 359 0.0 0.0 0.00 0.00 0.00 99 1020.0
20260831111732 67 360 1.0 1.0 0.00 0.00 0.00 99 1020.0
20260831111232 66 359 0.0 0.0 0.00 0.00 0.00 99 1020.0
20260831110733 66 360 0.0 0.0 0.00 0.00 0.00 99 1020.0
20260831110233 66 359 0.0 0.0 0.00 0.00 0.00 99 1020.0
20260831105732 66 359 0.0 0.0 0.00 0.00 0.00 99 1020.0
20260831105232 66 359 0.0 0.0 0.00 0.00 0.00 99 1020.0
20260831104733 66 359 0.0 0.0 0.00 0.00 0.00 99 1020.0
20260831104234 66 359 0.0 0.0 0.00 0.00 0.00 99 1020.0
20260831103733 66 359 0.0 0.0 0.00 0.00 0.00 99 1020.0
20260831103233 66 360 0.0 0.0 0.00 0.00 0.00 99 1020.0
20260831102733 66 360 0.0 0.0 0.00 0.00 0.00 99 1020.0
20260831102234 66 359 0.0 0.0 0.00 0.00 0.00 99 1019.6
20260831101732 66 359 0.0 0.0 0.00 0.00 0.00 99 1019.6
20260831101232 66 359 0.0 0.0 0.00 0.00 0.00 99 1019.6
20260831100733 66 359 0.0 0.0 0.00 0.00 0.00 99 1019.6
20260831100233 66 359 0.0 0.0 0.00 0.00 0.00 99 1019.6
20260831095733 66 359 0.0 0.0 0.00 0.00 0.00 99 1019.6
20260831095232 66 359 0.0 0.0 0.00 0.00 0.00 99 1019.6
20260831094732 66 359 0.0 0.0 0.00 0.00 0.00 99 1019.3
20260831094232 66 359 0.0 0.0 0.00 0.00 0.00 99 1019.3
20260831093733 66 359 0.0 0.0 0.00 0.00 0.00 99 1019.3
20260831093232 67 359 0.0 0.0 0.00 0.00 0.00 99 1019.3
20260831092732 67 359 0.0 0.0 0.00 0.00 0.00 99 1019.3
20260831092232 67 359 0.0 0.0 0.00 0.00 0.00 99 1019.3
20260831091734 67 359 0.0 0.0 0.00 0.00 0.00 99 1019.3
20260831091239 67 360 0.0 0.0 0.00 0.00 0.00 99 1019.3
20260831090732 67 359 0.0 0.0 0.00 0.00 0.00 99 1019.3
20260831090233 67 359 0.0 0.0 0.00 0.00 0.00 99 1019.3
20260831085733 67 359 0.0 0.0 0.00 0.00 0.00 99 1019.3
20260831085232 67 359 0.0 0.0 0.00 0.00 0.00 99 1019.3
20260831084732 67 359 0.0 0.0 0.00 0.00 0.00 99 1019.3
20260831084233 67 359 0.0 0.0 0.00 0.00 0.00 99 1019.3
20260831083732 67 359 0.0 0.0 0.00 0.00 0.00 99 1019.3
20260831083232 67 359 0.0 0.0 0.00 0.00 0.00 99 1019.3
20260831082732 67 360 0.0 0.0 0.00 0.00 0.00 99 1019.3
20260831082234 67 360 0.0 0.0 0.00 0.00 0.00 99 1019.3
20260831081732 67 360 0.0 0.0 0.00 0.00 0.00 99 1019.3
20260831081233 67 359 0.0 0.0 0.00 0.00 0.00 99 1019.3
20260831080732 67 359 0.0 0.0 0.00 0.00 0.00 99 1019.3
20260831080235 67 359 0.0 0.0 0.00 0.00 0.00 99 1019.3
20260831075734 67 360 0.0 0.0 0.00 0.00 0.00 99 1019.3
20260831075233 67 359 0.0 0.0 0.00 0.00 0.00 99 1019.3
20260831074732 67 359 0.0 0.0 0.00 0.00 0.00 99 1019.3
20260831074233 67 359 0.0 0.0 0.00 0.00 0.00 99 1019.3
20260831073733 67 359 0.0 0.0 0.00 0.00 0.00 99 1019.3
20260831073233 67 359 0.0 0.0 0.00 0.00 0.00 99 1019.3
20260831072734 67 359 0.0 0.0 0.00 0.00 0.00 99 1019.3
20260831072232 67 360 0.0 0.0 0.00 0.00 0.00 99 1019.3
20260831071732 67 360 0.0 1.0 0.00 0.00 0.00 99 1019.3
20260831071233 67 359 0.0 0.0 0.00 0.00 0.00 99 1019.3
20260831070733 68 359 0.0 0.0 0.00 0.00 0.00 99 1019.3
20260831070232 68 4 1.0 1.0 0.00 0.00 0.00 99 1019.3
20260831065732 68 4 0.0 0.0 0.00 0.00 0.00 99 1019.3
20260831065232 68 2 0.0 0.0 0.00 0.00 0.00 99 1019.3
20260831064732 68 2 0.0 0.0 0.00 0.00 0.00 99 1019.6
20260831064233 68 360 0.0 0.0 0.00 0.00 0.00 99 1019.6
20260831063732 68 360 0.0 0.0 0.00 0.00 0.00 99 1019.3
20260831063232 68 2 0.0 0.0 0.00 0.00 0.00 99 1019.3
20260831062732 68 2 0.0 0.0 0.00 0.00 0.00 99 1019.3
20260831062232 68 360 0.0 0.0 0.00 0.00 0.00 99 1019.3
20260831061732 68 360 0.0 0.0 0.00 0.00 0.00 99 1019.3
20260831061233 68 360 0.0 0.0 0.00 0.00 0.00 99 1019.6
20260831060733 68 360 0.0 0.0 0.00 0.00 0.00 99 1019.6
20260831060232 68 360 0.0 0.0 0.00 0.00 0.00 99 1019.6
20260831055732 68 2 0.0 0.0 0.00 0.00 0.00 99 1019.3
20260831055232 68 2 0.0 0.0 0.00 0.00 0.00 99 1019.3
20260831054732 68 360 0.0 0.0 0.00 0.00 0.00 99 1019.3
20260831054232 68 360 0.0 0.0 0.00 0.00 0.00 99 1019.3
20260831053732 68 360 0.0 0.0 0.00 0.00 0.00 99 1019.6
20260831053232 68 2 0.0 0.0 0.00 0.00 0.00 99 1019.6
20260831052733 68 360 0.0 0.0 0.00 0.00 0.00 99 1019.6
20260831052234 68 360 0.0 0.0 0.00 0.00 0.00 99 1019.6
20260831051734 68 2 0.0 0.0 0.00 0.00 0.00 99 1019.6
20260831051233 68 360 0.0 0.0 0.00 0.00 0.00 99 1019.6
20260831050732 68 360 0.0 0.0 0.00 0.00 0.00 99 1019.6
20260831050232 69 2 0.0 0.0 0.00 0.00 0.00 99 1019.6
20260831045732 69 2 0.0 0.0 0.00 0.00 0.00 99 1019.6
20260831045233 69 2 0.0 0.0 0.00 0.00 0.00 99 1019.6
20260831044733 69 360 0.0 0.0 0.00 0.00 0.00 99 1019.6
20260831044233 69 360 0.0 0.0 0.00 0.00 0.00 99 1019.6
20260831043732 69 360 0.0 0.0 0.00 0.00 0.00 99 1020.0
20260831043234 69 360 0.0 0.0 0.00 0.00 0.00 99 1020.0
20260831042732 69 360 0.0 0.0 0.00 0.00 0.00 99 1020.0
20260831042232 69 360 0.0 0.0 0.00 0.00 0.00 99 1019.6
20260831041732 69 2 0.0 1.0 0.00 0.00 0.00 99 1019.6
20260831041232 69 360 0.0 0.0 0.00 0.00 0.00 99 1019.6
20260831040732 69 2 0.0 0.0 0.00 0.00 0.00 99 1019.6
20260831040233 69 360 0.0 0.0 0.00 0.00 0.00 99 1020.0
20260831035733 69 2 0.0 0.0 0.00 0.00 0.00 99 1020.0
20260831035233 69 2 0.0 0.0 0.00 0.00 0.00 99 1020.0
20260831034732 69 2 0.0 0.0 0.00 0.00 0.00 99 1020.0
20260831034232 69 360 0.0 0.0 0.00 0.00 0.00 99 1020.0
20260831033732 69 2 0.0 0.0 0.00 0.00 0.00 99 1020.0
20260831033232 69 360 0.0 0.0 0.00 0.00 0.00 99 1020.0
20260831032732 69 2 0.0 0.0 0.00 0.00 0.00 99 1020.0
20260831032232 69 2 0.0 0.0 0.00 0.00 0.00 99 1019.6
20260831031733 69 2 0.0 0.0 0.00 0.00 0.00 99 1019.6
20260831031232 69 360 0.0 0.0 0.00 0.00 0.00 99 1019.6
20260831030733 69 360 0.0 0.0 0.00 0.00 0.00 99 1019.6
20260831030232 69 2 0.0 0.0 0.00 0.00 0.00 99 1019.6
20260831025732 69 2 0.0 0.0 0.00 0.00 0.00 99 1019.6
20260831025233 70 2 0.0 0.0 0.00 0.00 0.00 99 1019.6
20260831024733 70 2 0.0 1.0 0.00 0.00 0.00 99 1019.6
20260831024232 70 2 0.0 0.0 0.00 0.00 0.00 99 1019.6
20260831023733 70 2 0.0 0.0 0.00 0.00 0.00 99 1019.6
20260831023232 70 360 0.0 0.0 0.00 0.00 0.00 99 1019.6
20260831022737 70 360 0.0 0.0 0.00 0.00 0.00 99 1019.6
20260831022232 70 360 0.0 0.0 0.00 0.00 0.00 99 1019.6
20260831021732 70 360 0.0 0.0 0.00 0.00 0.00 99 1019.6
20260831021232 70 360 0.0 0.0 0.00 0.00 0.00 99 1019.6
20260831020732 70 360 0.0 0.0 0.00 0.00 0.00 99 1019.6
20260831020232 71 360 0.0 0.0 0.00 0.00 0.00 99 1019.6
20260831015733 71 2 1.0 1.0 0.00 0.00 0.00 99 1019.3
20260831015233 71 360 0.0 0.0 0.00 0.00 0.00 99 1019.3
20260831014732 71 360 0.0 0.0 0.00 0.00 0.00 99 1019.6
20260831014232 71 360 0.0 0.0 0.00 0.00 0.00 99 1019.6
20260831013736 71 360 0.0 0.0 0.00 0.00 0.00 99 1019.6
20260831013233 71 360 0.0 0.0 0.00 0.00 0.00 99 1019.6
20260831012732 71 360 0.0 0.0 0.00 0.00 0.00 99 1019.6
20260831012232 71 360 0.0 0.0 0.00 0.00 0.00 99 1019.3
20260831011735 71 360 0.0 0.0 0.00 0.00 0.00 99 1019.3
20260831011232 71 360 0.0 0.0 0.00 0.00 0.00 99 1019.3
20260831010733 72 360 0.0 0.0 0.00 0.00 0.00 99 1019.3
20260831010232 72 360 0.0 0.0 0.00 0.00 0.00 99 1019.3
20260831005732 72 360 0.0 0.0 0.00 0.00 0.00 99 1019.3
20260831005233 72 360 0.0 0.0 0.00 0.00 0.00 99 1019.3
20260831004733 73 2 0.0 0.0 0.00 0.00 0.00 99 1019.0
20260831004232 73 360 0.0 0.0 0.00 0.00 0.00 99 1019.0
20260831003733 73 360 0.0 0.0 0.00 0.00 0.00 99 1018.3
20260831003233 74 360 0.0 0.0 0.00 0.00 0.00 99 1018.3
20260831002734 74 360 0.0 0.0 0.00 0.00 0.00 99 1018.3
20260831002232 74 2 0.0 0.0 0.00 0.00 0.00 99 1018.3
20260831001732 74 360 0.0 0.0 0.00 0.00 0.00 99 1018.3
20260831001232 74 6 1.0 1.0 0.00 0.00 0.00 99 1018.3
20260831000733 75 12 0.0 0.0 0.00 0.00 0.00 99 1018.3
20260831000233 75 22 0.0 0.0 0.00 0.00 0.00 99 1018.3
20260830235247 76 8 1.0 1.0 0.00 0.00 0.00 99 1018.3
20260830234732 76 8 1.0 1.0 0.00 0.00 0.00 99 1018.3
20260830234232 76 360 1.0 1.0 0.00 0.00 0.00 99 1018.3
20260830233732 76 8 0.0 0.0 0.00 0.00 0.00 98 1018.3
20260830233232 77 358 0.0 0.0 0.00 0.00 0.00 97 1018.3
20260830232732 77 2 1.0 1.0 0.00 0.00 0.00 96 1018.3
20260830232232 77 7 1.0 1.0 0.00 0.00 0.00 95 1017.9
20260830231733 77 4 1.0 1.0 0.00 0.00 0.00 93 1017.9
20260830231232 78 359 1.0 1.0 0.00 0.00 0.00 92 1018.3
20260830230732 78 358 1.0 1.0 0.00 0.00 0.00 91 1018.3
20260830230233 78 5 1.0 1.0 0.00 0.00 0.00 91 1018.3
20260830225732 78 8 2.0 2.0 0.00 0.00 0.00 90 1018.3
20260830225232 78 10 1.0 1.0 0.00 0.00 0.00 89 1018.3
20260830224732 78 357 1.0 1.0 0.00 0.00 0.00 88 1017.9
20260830224232 79 8 1.0 1.0 0.00 0.00 0.00 87 1017.9
20260830223732 79 360 2.0 2.0 0.00 0.00 0.00 85 1017.9
20260830223232 80 360 2.0 2.0 0.00 0.00 0.00 84 1017.9
20260830222732 80 360 2.0 2.0 0.00 0.00 0.00 85 1017.9
20260830222232 80 360 1.0 1.0 0.00 0.00 0.00 83 1018.3
20260830221732 80 356 2.0 2.0 0.00 0.00 0.00 81 1018.3
20260830221232 80 8 1.0 1.0 0.00 0.00 0.00 81 1018.3
20260830220733 80 358 2.0 2.0 0.00 0.00 0.00 80 1018.3
20260830220233 81 359 1.0 2.0 0.00 0.00 0.00 80 1018.3
20260830215732 81 354 1.0 1.0 0.00 0.00 0.00 78 1018.3
20260830215232 82 5 2.0 2.0 0.00 0.00 0.00 75 1018.3
20260830214734 83 3 1.0 1.0 0.00 0.00 0.00 71 1018.3
20260830214232 85 344 3.0 3.0 0.00 0.00 0.00 67 1018.3
20260830213737 87 8 1.0 1.0 0.00 0.00 0.00 65 1017.9
20260830213232 87 351 0.0 1.0 0.00 0.00 0.00 64 1017.9
20260830212733 88 8 1.0 1.0 0.00 0.00 0.00 61 1017.9
20260830212232 89 343 1.0 1.0 0.00 0.00 0.00 60 1017.9
20260830211733 90 357 1.0 1.0 0.00 0.00 0.00 59 1017.9
20260830211232 90 12 1.0 1.0 0.00 0.00 0.00 54 1017.9
20260830210733 90 172 1.0 1.0 0.00 0.00 0.00 58 1017.9
20260830210232 92 65 2.0 2.0 0.00 0.00 0.00 52 1017.9
20260830205732 91 328 0.0 1.0 0.00 0.00 0.00 57 1018.3
20260830205232 90 331 1.0 2.0 0.00 0.00 0.00 58 1018.3
20260830204732 90 17 2.0 3.0 0.00 0.00 0.00 59 1019.0
20260830204232 92 282 1.0 2.0 0.00 0.00 0.00 54 1019.0
20260830203732 91 343 0.0 1.0 0.00 0.00 0.00 58 1019.0
20260830203232 92 106 8.0 10.0 0.00 0.00 0.00 51 1019.0
20260830202734 92 190 4.0 4.0 0.00 0.00 0.00 50 1019.0
20260830202232 92 90 1.0 1.0 0.00 0.00 0.00 52 1019.3
20260830201732 92 102 4.0 5.0 0.00 0.00 0.00 52 1019.3
20260830201232 92 84 3.0 4.0 0.00 0.00 0.00 54 1019.3
20260830200732 92 50 1.0 2.0 0.00 0.00 0.00 49 1019.3